GW6227 Weather Reports


time (UTC)temp
C
wind
direction
speed
KPH
gust
KPH
rain 1hr
cm
rain 24hr
cm
rain mn
cm
humidity
%
barometer
mb
20260509102454 27 90 8.0 9.7 0.00 0.00 0.36 88 1012.5
20260509101954 27 90 6.4 9.7 0.00 0.00 0.36 88 1012.5
20260509101454 27 113 6.4 8.0 0.00 0.00 0.36 88 1012.2
20260509100954 27 68 9.7 11.3 0.00 0.00 0.36 88 1012.2
20260509100453 27 90 8.0 8.0 0.00 0.00 0.36 87 1012.2
20260509095954 28 90 8.0 8.0 0.00 0.00 0.36 87 1012.2
20260509095453 28 90 8.0 11.3 0.00 0.00 0.36 87 1011.9
20260509094953 28 90 8.0 9.7 0.00 0.00 0.36 86 1011.9
20260509094453 28 68 11.3 14.5 0.00 0.00 0.36 86 1011.9
20260509093953 28 90 9.7 11.3 0.00 0.00 0.36 85 1011.9
20260509093454 28 90 12.9 14.5 0.00 0.00 0.36 84 1011.9
20260509092953 28 90 9.7 12.9 0.00 0.00 0.36 84 1011.9
20260509092453 28 68 8.0 11.3 0.00 0.00 0.36 83 1011.9
20260509091953 29 90 9.7 17.7 0.00 0.00 0.36 82 1011.9
20260509091454 29 90 16.1 20.9 0.00 0.00 0.36 81 1011.9
20260509090953 29 45 8.0 11.3 0.00 0.00 0.36 81 1011.9
20260509090453 29 68 14.5 20.9 0.00 0.00 0.36 80 1011.9
20260509085955 30 68 4.8 11.3 0.00 0.00 0.36 80 1011.9
20260509085453 30 68 9.7 16.1 0.00 0.00 0.36 80 1011.5
20260509084953 30 68 4.8 6.4 0.00 0.00 0.36 79 1011.9
20260509084453 30 45 9.7 20.9 0.00 0.00 0.36 78 1011.5
20260509083953 30 90 6.4 8.0 0.00 0.00 0.36 79 1011.5
20260509083454 30 68 4.8 8.0 0.00 0.00 0.36 78 1011.5
20260509082953 30 90 14.5 16.1 0.00 0.00 0.36 77 1011.5
20260509082457 31 68 4.8 6.4 0.00 0.00 0.36 76 1011.2
20260509081954 31 90 4.8 6.4 0.00 0.00 0.36 77 1011.5
20260509081453 31 68 8.0 11.3 0.00 0.00 0.36 76 1011.2
20260509080953 31 90 9.7 11.3 0.00 0.00 0.36 76 1011.2
20260509080453 31 68 16.1 24.1 0.00 0.00 0.36 75 1011.2
20260509075953 31 90 8.0 8.0 0.00 0.00 0.36 76 1011.2
20260509075453 31 45 4.8 6.4 0.00 0.00 0.36 75 1011.2
20260509074953 32 90 6.4 8.0 0.00 0.00 0.36 75 1011.2
20260509074453 32 90 6.4 9.7 0.00 0.00 0.36 74 1011.2
20260509073953 31 0 9.7 11.3 0.00 0.00 0.36 76 1011.2
20260509073453 31 338 11.3 22.5 0.00 0.00 0.36 74 1011.2
20260509072953 31 90 4.8 9.7 0.00 0.00 0.36 75 1011.2
20260509072453 31 90 11.3 12.9 0.00 0.00 0.36 75 1011.2
20260509071953 32 135 4.8 8.0 0.00 0.00 0.36 73 1011.2
20260509071453 32 90 4.8 8.0 0.00 0.00 0.36 74 1011.5
20260509070953 32 90 8.0 11.3 0.00 0.00 0.36 74 1011.2
20260509070453 32 68 8.0 8.0 0.00 0.00 0.36 74 1011.2
20260509065953 32 68 6.4 9.7 0.00 0.00 0.36 73 1011.5
20260509065454 32 68 8.0 9.7 0.00 0.00 0.36 74 1011.2
20260509064953 32 90 4.8 6.4 0.00 0.00 0.36 72 1011.2
20260509064453 32 90 6.4 8.0 0.00 0.00 0.36 72 1011.2
20260509063955 32 90 4.8 8.0 0.00 0.00 0.36 71 1011.5
20260509063454 33 45 6.4 8.0 0.00 0.00 0.36 72 1011.5
20260509062953 32 113 11.3 12.9 0.00 0.00 0.36 70 1011.5
20260509062453 33 90 4.8 8.0 0.00 0.00 0.36 72 1011.5
20260509061953 33 90 4.8 6.4 0.00 0.00 0.36 72 1011.9
20260509061453 33 68 4.8 8.0 0.00 0.00 0.36 71 1011.5
20260509060953 33 90 8.0 9.7 0.00 0.00 0.36 70 1011.9
20260509060453 32 68 8.0 8.0 0.00 0.00 0.36 72 1011.9
20260509055955 33 45 3.2 6.4 0.00 0.00 0.36 70 1011.9
20260509055454 33 90 3.2 6.4 0.00 0.00 0.36 70 1011.9
20260509054954 34 68 4.8 8.0 0.00 0.00 0.36 69 1012.2
20260509054454 33 90 9.7 14.5 0.00 0.00 0.36 68 1012.2
20260509053954 33 68 9.7 11.3 0.00 0.00 0.36 70 1012.2
20260509053453 33 90 6.4 11.3 0.00 0.00 0.36 69 1012.5
20260509052953 33 90 3.2 3.2 0.00 0.00 0.36 71 1012.2
20260509052453 33 90 8.0 16.1 0.00 0.00 0.36 70 1012.5
20260509051953 33 68 8.0 9.7 0.00 0.00 0.36 69 1012.5
20260509051453 33 68 4.8 8.0 0.00 0.00 0.36 72 1012.9
20260509050953 33 90 4.8 6.4 0.00 0.00 0.36 71 1012.5
20260509050454 33 90 9.7 14.5 0.00 0.00 0.36 69 1012.9
20260509045954 32 135 3.2 4.8 0.00 0.00 0.36 72 1012.9
20260509045453 32 45 8.0 11.3 0.00 0.00 0.36 71 1012.9
20260509044953 32 68 6.4 8.0 0.00 0.00 0.36 72 1012.9
20260509044453 33 68 4.8 6.4 0.00 0.00 0.36 70 1012.9
20260509043953 33 68 4.8 4.8 0.00 0.00 0.36 71 1013.2
20260509043454 33 90 9.7 11.3 0.00 0.00 0.36 71 1013.2
20260509042953 33 90 3.2 3.2 0.00 0.00 0.36 73 1013.5
20260509042454 33 68 3.2 4.8 0.00 0.00 0.36 71 1013.5
20260509041953 32 90 4.8 6.4 0.00 0.00 0.36 72 1013.5
20260509041454 32 68 11.3 16.1 0.00 0.00 0.36 72 1013.5
20260509040953 32 90 6.4 8.0 0.00 0.00 0.36 74 1013.5
20260509040453 32 135 3.2 4.8 0.00 0.00 0.36 72 1013.5
20260509035953 32 90 4.8 6.4 0.00 0.00 0.36 72 1013.9
20260509035454 32 135 1.6 3.2 0.00 0.00 0.36 74 1013.9
20260509034953 32 113 4.8 6.4 0.00 0.00 0.36 73 1013.9
20260509034454 32 90 6.4 8.0 0.00 0.00 0.36 73 1013.9
20260509033953 32 68 8.0 14.5 0.00 0.00 0.36 71 1013.9
20260509033454 32 248 1.6 3.2 0.00 0.00 0.36 73 1013.9
20260509032954 32 45 4.8 8.0 0.00 0.00 0.36 72 1014.2
20260509032453 32 113 4.8 4.8 0.00 0.00 0.36 71 1014.2
20260509031953 32 68 8.0 11.3 0.00 0.00 0.36 70 1014.2
20260509031453 33 68 3.2 3.2 0.00 0.00 0.36 72 1014.2
20260509030953 33 45 8.0 11.3 0.00 0.00 0.36 73 1014.2
20260509030454 32 90 4.8 4.8 0.00 0.00 0.36 74 1014.6
20260509025953 32 68 3.2 4.8 0.03 0.00 0.36 74 1014.6
20260509025453 32 90 3.2 6.4 0.03 0.00 0.36 71 1014.6
20260509024507 32 90 4.8 8.0 0.03 0.00 0.36 73 1014.6
20260509023953 31 90 8.0 11.3 0.03 0.00 0.36 77 1014.6
20260509023453 31 68 9.7 11.3 0.03 0.00 0.36 75 1014.6
20260509022953 31 68 4.8 6.4 0.03 0.00 0.36 77 1014.6
20260509022453 31 68 9.7 11.3 0.03 0.00 0.36 76 1014.6
20260509021953 31 90 11.3 14.5 0.03 0.00 0.36 79 1014.6
20260509021454 31 113 4.8 12.9 0.03 0.00 0.36 80 1014.9
20260509020953 31 68 9.7 11.3 0.03 0.00 0.36 77 1014.9
20260509020455 30 68 14.5 16.1 0.00 0.00 0.33 79 1014.9
20260509015953 30 68 8.0 16.1 0.00 0.00 0.33 81 1014.9
20260509015453 28 90 6.4 8.0 0.00 0.00 0.33 86 1014.9
20260509014954 28 68 9.7 11.3 0.00 0.00 0.33 85 1015.2
20260509014453 29 45 12.9 16.1 0.00 0.00 0.33 85 1014.9
20260509013953 28 68 12.9 17.7 0.00 0.00 0.33 87 1014.9
20260509013454 28 68 9.7 12.9 0.00 0.00 0.33 86 1014.9
20260509012956 28 90 9.7 14.5 0.00 0.00 0.33 88 1015.2
20260509012453 28 90 4.8 4.8 0.00 0.00 0.33 89 1014.9
20260509011953 29 68 8.0 11.3 0.00 0.00 0.33 86 1015.2
20260509011453 29 90 8.0 9.7 0.00 0.00 0.33 89 1015.2
20260509010953 28 68 4.8 8.0 0.00 0.00 0.33 94 1015.2
20260509010455 28 68 8.0 9.7 0.00 0.00 0.33 95 1015.2
20260509005953 26 68 9.7 11.3 0.33 0.00 0.33 94 1015.2
20260509005453 26 45 6.4 8.0 0.13 0.00 0.13 94 1015.2
20260509004954 26 113 3.2 4.8 0.00 0.00 0.00 92 1015.6
20260509004453 27 113 4.8 8.0 0.00 0.00 0.00 89 1015.2
20260509003953 28 68 8.0 14.5 0.00 0.00 0.00 85 1015.2
20260509003453 29 45 3.2 3.2 0.00 0.00 0.00 80 1014.9
20260509002955 30 0 9.7 12.9 0.00 0.00 0.00 77 1014.9
20260509002453 30 90 8.0 8.0 0.00 0.00 0.00 76 1014.6
20260509001954 30 45 9.7 16.1 0.00 0.00 0.00 78 1014.6
20260509001453 30 68 14.5 19.3 0.00 0.00 0.00 79 1014.6
20260509000953 30 45 6.4 8.0 0.00 0.00 0.00 80 1014.6
20260509000455 29 68 9.7 11.3 0.00 0.00 0.00 80 1014.6
20260508235953 29 90 8.0 12.9 0.00 0.00 0.00 81 1014.6
20260508235453 28 45 14.5 22.5 0.00 0.00 0.00 81 1014.6
20260508234953 28 45 6.4 8.0 0.00 0.00 0.00 81 1014.6
20260508234453 29 90 9.7 12.9 0.00 0.00 0.00 80 1014.6
20260508233953 29 68 9.7 11.3 0.00 0.00 0.00 80 1014.6
20260508233453 29 68 9.7 14.5 0.00 0.00 0.00 79 1013.9
20260508232953 28 90 8.0 14.5 0.00 0.00 0.00 80 1014.2
20260508232454 28 68 9.7 16.1 0.00 0.00 0.00 80 1014.2
20260508231953 28 68 8.0 11.3 0.00 0.00 0.00 81 1013.9
20260508231454 28 113 9.7 12.9 0.00 0.00 0.00 80 1013.9
20260508230953 28 23 9.7 14.5 0.00 0.00 0.00 80 1013.9
20260508230453 29 68 8.0 11.3 0.00 0.00 0.00 79 1013.9
20260508225953 30 68 8.0 11.3 0.00 0.00 0.00 77 1013.9
20260508225454 29 90 8.0 11.3 0.00 0.00 0.00 77 1013.5
20260508224953 30 135 6.4 8.0 0.00 0.00 0.00 78 1013.9
20260508224453 29 90 4.8 4.8 0.00 0.00 0.00 78 1013.5
20260508223954 29 45 3.2 6.4 0.00 0.00 0.00 79 1013.5
20260508223453 28 23 6.4 11.3 0.00 0.00 0.00 79 1013.5
20260508222953 28 90 4.8 8.0 0.00 0.00 0.00 80 1013.5
20260508222453 28 90 8.0 11.3 0.00 0.00 0.00 80 1013.5
20260508221953 28 90 9.7 12.9 0.00 0.00 0.00 80 1013.2
20260508221453 28 68 4.8 6.4 0.00 0.00 0.00 81 1013.2
20260508220955 28 90 4.8 8.0 0.00 0.00 0.00 82 1013.2
20260508220454 27 68 4.8 8.0 0.00 0.00 0.00 83 1012.9
20260508215954 27 68 4.8 4.8 0.00 0.00 0.00 83 1012.9
20260508215453 27 90 11.3 12.9 0.00 0.00 0.00 84 1012.9
20260508214954 27 90 9.7 16.1 0.00 0.00 0.00 85 1012.9
20260508214454 27 68 4.8 8.0 0.00 0.00 0.00 85 1013.2
20260508213953 27 68 6.4 11.3 0.00 0.00 0.00 85 1013.2
20260508213453 27 68 8.0 11.3 0.00 0.00 0.00 87 1012.9
20260508212953 26 90 0.0 1.6 0.00 0.00 0.00 87 1012.9
20260508212456 26 68 1.6 3.2 0.00 0.00 0.00 89 1012.9
20260508211954 26 90 0.0 0.0 0.00 0.00 0.00 89 1012.9
20260508211453 26 68 0.0 3.2 0.00 0.00 0.00 88 1012.9
20260508210953 26 338 3.2 3.2 0.00 0.00 0.00 88 1012.9
20260508210453 26 0 0.0 1.6 0.00 0.00 0.00 87 1012.9
20260508205953 26 45 1.6 3.2 0.00 0.00 0.00 86 1012.5
20260508205453 27 68 3.2 4.8 0.00 0.00 0.00 86 1012.5
20260508204953 27 315 3.2 4.8 0.00 0.00 0.00 85 1012.5
20260508204453 27 68 4.8 8.0 0.00 0.00 0.00 85 1012.5
20260508203953 27 68 3.2 4.8 0.00 0.00 0.00 85 1012.9
20260508203453 27 23 4.8 4.8 0.00 0.00 0.00 85 1012.5
20260508202955 27 68 4.8 8.0 0.00 0.00 0.00 86 1012.9
20260508202454 26 68 1.6 3.2 0.00 0.00 0.00 86 1012.9
20260508201954 27 68 3.2 4.8 0.00 0.00 0.00 86 1012.5
20260508201453 26 45 4.8 6.4 0.00 0.00 0.00 86 1012.5
20260508200954 26 68 4.8 6.4 0.00 0.00 0.00 86 1012.5
20260508200453 27 135 3.2 4.8 0.00 0.00 0.00 86 1012.5
20260508195954 26 68 4.8 6.4 0.00 0.00 0.00 86 1012.5
20260508195453 26 68 6.4 8.0 0.00 0.00 0.00 86 1012.2
20260508194954 26 68 4.8 6.4 0.00 0.00 0.00 86 1012.5
20260508194454 26 90 4.8 8.0 0.00 0.00 0.00 86 1012.5
20260508193954 26 45 4.8 8.0 0.00 0.00 0.00 86 1012.5
20260508193453 26 90 3.2 4.8 0.00 0.00 0.00 87 1012.2
20260508192953 26 90 6.4 8.0 0.00 0.00 0.00 86 1012.2
20260508192456 26 45 1.6 3.2 0.00 0.00 0.00 87 1012.5
20260508191953 26 68 1.6 3.2 0.00 0.00 0.00 86 1012.2
20260508191453 26 90 8.0 9.7 0.00 0.00 0.00 86 1012.5
20260508191002 26 90 4.8 6.4 0.00 0.00 0.00 87 1012.2
20260508190453 26 68 6.4 8.0 0.00 0.00 0.00 87 1012.2
20260508185953 26 68 4.8 6.4 0.00 0.00 0.00 87 1012.5
20260508185453 27 45 8.0 8.0 0.00 0.00 0.00 86 1012.5
20260508184954 27 90 6.4 8.0 0.00 0.00 0.00 85 1012.5
20260508184453 27 90 3.2 4.8 0.00 0.00 0.00 85 1012.5
20260508183953 27 68 6.4 8.0 0.00 0.00 0.00 86 1012.5
20260508183457 27 68 8.0 9.7 0.00 0.00 0.00 85 1012.9
20260508182953 27 68 6.4 8.0 0.00 0.00 0.00 84 1012.5
20260508182453 27 113 3.2 3.2 0.00 0.00 0.00 85 1012.9
20260508181953 27 45 3.2 3.2 0.00 0.00 0.00 84 1012.9
20260508181454 27 135 4.8 4.8 0.00 0.00 0.00 83 1012.5
20260508180954 27 113 4.8 6.4 0.00 0.00 0.00 83 1012.9
20260508180454 27 68 8.0 11.3 0.00 0.00 0.00 83 1012.9
20260508175953 27 68 11.3 12.9 0.00 0.00 0.00 83 1012.9
20260508175454 27 45 9.7 14.5 0.00 0.00 0.00 84 1012.9
20260508174953 27 68 8.0 8.0 0.00 0.00 0.00 85 1012.9
20260508174454 27 90 8.0 11.3 0.00 0.00 0.00 85 1012.9
20260508173953 27 113 3.2 4.8 0.00 0.00 0.00 87 1012.9
20260508173453 27 68 11.3 12.9 0.00 0.00 0.00 86 1012.9
20260508172954 27 45 9.7 11.3 0.00 0.00 0.00 86 1012.9
20260508172454 27 45 12.9 16.1 0.00 0.00 0.00 86 1012.9
20260508171953 27 90 11.3 14.5 0.00 0.00 0.00 86 1012.9
20260508171454 27 68 12.9 16.1 0.00 0.00 0.00 86 1013.2
20260508170954 27 90 8.0 9.7 0.00 0.00 0.00 86 1013.2
20260508170453 27 90 6.4 11.3 0.00 0.00 0.00 85 1013.2
20260508165954 27 45 6.4 8.0 0.00 0.00 0.00 86 1013.2
20260508165453 26 45 6.4 9.7 0.00 0.00 0.00 87 1013.2
20260508164953 26 68 4.8 4.8 0.00 0.00 0.00 87 1013.5
20260508164453 27 68 1.6 3.2 0.00 0.00 0.00 87 1013.5
20260508163953 27 45 4.8 6.4 0.00 0.00 0.00 86 1013.2
20260508163454 27 90 3.2 3.2 0.00 0.00 0.00 87 1013.2
20260508162954 27 90 4.8 4.8 0.00 0.00 0.00 86 1013.2
20260508162458 27 90 9.7 14.5 0.00 0.00 0.00 85 1013.2
20260508161954 27 23 6.4 8.0 0.00 0.00 0.00 85 1013.2
20260508161455 27 45 8.0 9.7 0.00 0.00 0.00 85 1013.2
20260508160953 27 90 8.0 8.0 0.00 0.00 0.00 85 1013.2
20260508160453 27 68 9.7 14.5 0.00 0.00 0.00 85 1013.2
20260508155954 27 68 12.9 16.1 0.00 0.00 0.30 85 1013.5
20260508155454 27 45 4.8 6.4 0.00 0.00 0.30 87 1013.5
20260508154954 27 68 4.8 4.8 0.00 0.00 0.30 87 1013.5
20260508154454 27 68 4.8 6.4 0.00 0.00 0.30 87 1013.9
20260508153955 27 135 6.4 8.0 0.00 0.00 0.30 86 1013.9
20260508153453 27 45 9.7 12.9 0.00 0.00 0.30 86 1013.9
20260508152953 27 45 8.0 9.7 0.00 0.00 0.30 86 1014.2
20260508152453 27 90 8.0 11.3 0.00 0.00 0.30 86 1013.9
20260508151953 27 113 6.4 9.7 0.00 0.00 0.30 87 1014.2
20260508151454 27 68 8.0 11.3 0.00 0.00 0.30 87 1014.2
20260508150953 27 68 8.0 11.3 0.00 0.00 0.30 86 1014.2
20260508150454 27 68 12.9 17.7 0.00 0.00 0.30 89 1014.6
20260508145953 27 68 8.0 9.7 0.00 0.00 0.30 90 1014.6
20260508145454 27 68 6.4 8.0 0.00 0.00 0.30 90 1014.2
20260508145000 27 68 6.4 8.0 0.00 0.00 0.30 91 1014.6
20260508144454 27 68 9.7 11.3 0.00 0.00 0.30 91 1014.6
20260508143956 27 68 11.3 12.9 0.00 0.00 0.30 91 1014.6
20260508143454 27 0 9.7 12.9 0.00 0.00 0.30 92 1014.6
20260508142956 26 113 9.7 12.9 0.00 0.00 0.30 93 1014.9
20260508142454 26 68 4.8 6.4 0.00 0.00 0.30 95 1014.6
20260508141953 26 90 6.4 9.7 0.00 0.00 0.30 95 1014.6
20260508141454 26 45 11.3 16.1 0.00 0.00 0.30 95 1014.6
20260508140954 26 90 8.0 11.3 0.00 0.00 0.30 96 1014.6
20260508140453 26 90 6.4 9.7 0.00 0.00 0.30 96 1014.6
20260508135954 26 113 4.8 6.4 0.28 0.00 0.28 95 1014.6
20260508135454 26 90 3.2 4.8 0.28 0.00 0.28 95 1014.6
20260508135001 26 113 12.9 14.5 0.18 0.00 0.18 93 1014.6
20260508134453 26 45 12.9 16.1 0.03 0.00 0.03 93 1014.6
20260508133953 26 90 3.2 4.8 0.00 0.00 0.00 93 1014.6
20260508133454 26 68 8.0 8.0 0.00 0.00 0.00 92 1014.6
20260508132953 26 68 6.4 8.0 0.00 0.00 0.00 91 1014.6
20260508132454 26 68 3.2 4.8 0.00 0.00 0.00 91 1014.6
20260508131953 26 68 6.4 8.0 0.00 0.00 0.00 91 1014.6
20260508131453 26 90 4.8 6.4 0.00 0.00 0.00 91 1014.6
20260508130953 26 68 6.4 8.0 0.00 0.00 0.00 89 1014.6
20260508130453 27 90 4.8 4.8 0.00 0.00 0.00 91 1014.6
20260508125953 27 90 3.2 6.4 0.00 0.00 0.00 90 1014.6
20260508125453 26 113 6.4 9.7 0.00 0.00 0.00 91 1014.6
20260508124953 26 68 3.2 3.2 0.00 0.00 0.00 91 1014.6
20260508124454 26 68 4.8 8.0 0.00 0.00 0.00 91 1014.2
20260508123954 26 68 8.0 12.9 0.00 0.00 0.00 93 1014.2
20260508123454 26 23 8.0 12.9 0.00 0.00 0.00 93 1014.2
20260508122953 26 68 4.8 6.4 0.00 0.00 0.00 93 1014.6
20260508122453 26 68 8.0 9.7 0.00 0.00 0.00 92 1014.6
20260508121954 27 45 12.9 14.5 0.00 0.00 0.00 91 1014.2
20260508121454 27 68 20.9 27.4 0.00 0.00 0.00 88 1014.2
20260508120953 28 90 9.7 11.3 0.00 0.00 0.00 86 1013.9
20260508120453 28 45 11.3 14.5 0.00 0.00 0.00 86 1014.2
20260508115953 28 90 6.4 8.0 0.00 0.00 0.00 87 1013.9
20260508115453 28 315 4.8 8.0 0.00 0.00 0.00 86 1013.9
20260508114953 28 45 12.9 12.9 0.00 0.00 0.00 86 1013.9
20260508114454 28 45 9.7 12.9 0.00 0.00 0.00 86 1013.5
20260508113955 28 68 8.0 16.1 0.00 0.00 0.00 85 1013.5
20260508113454 28 68 8.0 9.7 0.00 0.00 0.00 84 1013.2
20260508112954 28 45 9.7 11.3 0.00 0.00 0.00 84 1013.2
20260508112454 28 90 8.0 9.7 0.00 0.00 0.00 83 1013.5
20260508111953 28 68 11.3 16.1 0.00 0.00 0.00 84 1013.2
20260508111453 28 45 8.0 11.3 0.00 0.00 0.00 84 1012.9
20260508110953 28 90 11.3 17.7 0.00 0.00 0.00 84 1013.2
20260508110453 28 68 6.4 11.3 0.00 0.00 0.00 84 1013.2
20260508105953 28 68 8.0 11.3 0.00 0.00 0.00 83 1013.2
20260508105453 28 113 11.3 14.5 0.00 0.00 0.00 83 1012.9
20260508104953 28 45 9.7 12.9 0.00 0.00 0.00 83 1012.9
20260508104453 28 68 8.0 11.3 0.00 0.00 0.00 83 1012.9
20260508103953 28 68 8.0 8.0 0.00 0.00 0.00 82 1012.9
20260508103454 28 90 9.7 12.9 0.00 0.00 0.00 82 1012.9
20260508102953 28 45 8.0 11.3 0.00 0.00 0.00 82 1012.9